When you browse on this site, cookies collect data to enhance your experience and personalize the content and advertising you see.
Visit our Privacy Policy to learn more. By continuing to use the site, you agree to this use of cookies and data.

Hourly Weather Uige

Today, 14 August, Friday

Time Temperature Precipitation Wind Pressure Humidity
00:00 +21°C° 0 mm 1 mps 691 mmHg 81%
01:00 +19°C° 0 mm 1 mps 691 mmHg 90%
02:00 +18°C° 0 mm 1 mps 690 mmHg 92%
03:00 +18°C° 0 mm 1 mps 690 mmHg 95%
04:00 +15°C° 0 mm 0 mps 690 mmHg 97%
05:00 +18°C° 0 mm 1 mps 690 mmHg 95%
06:00 +18°C° 0 mm 1 mps 690 mmHg 92%
07:00 +19°C° 0 mm 1 mps 691 mmHg 89%
08:00 +23°C° 0 mm 1 mps 691 mmHg 72%
09:00 +27°C° 0 mm 1 mps 692 mmHg 55%
10:00 +31°C° 0 mm 2 mps 693 mmHg 38%
11:00 +35°C° 0 mm 2 mps 692 mmHg 31%
12:00 +37°C° 0 mm 2 mps 691 mmHg 25%
13:00 +40°C° 0 mm 1 mps 691 mmHg 18%
14:00 +40°C° 0 mm 1 mps 690 mmHg 17%
15:00 +39°C° 0 mm 1 mps 689 mmHg 16%
16:00 +39°C° 0 mm 1 mps 689 mmHg 15%
17:00 +36°C° 0 mm 2 mps 689 mmHg 22%
18:00 +31°C° 0 mm 2 mps 689 mmHg 30%
19:00 +28°C° 0 mm 2 mps 689 mmHg 37%
20:00 +25°C° 0 mm 2 mps 689 mmHg 50%
21:00 +23°C° 0 mm 1 mps 690 mmHg 64%
22:00 +21°C° 0 mm 1 mps 690 mmHg 78%
23:00 +20°C° 0 mm 1 mps 690 mmHg 84%

Tomorrow, 15 August, Saturday

Time Temperature Precipitation Wind Pressure Humidity
00:00 +19°C° 0 mm 1 mps 690 mmHg 90%
01:00 +18°C° 0 mm 1 mps 690 mmHg 96%
02:00 +18°C° 0 mm 1 mps 690 mmHg 93%
03:00 +19°C° 0 mm 1 mps 690 mmHg 91%
04:00 +19°C° 0 mm 1 mps 690 mmHg 88%
05:00 +19°C° 0 mm 1 mps 690 mmHg 87%
06:00 +20°C° 0 mm 1 mps 691 mmHg 85%
07:00 +20°C° 0 mm 1 mps 691 mmHg 84%
08:00 +23°C° 0 mm 1 mps 691 mmHg 71%
09:00 +26°C° 0 mm 1 mps 692 mmHg 59%
10:00 +29°C° 0 mm 1 mps 692 mmHg 46%
11:00 +31°C° 0 mm 1 mps 692 mmHg 39%
12:00 +34°C° 0 mm 1 mps 691 mmHg 32%
13:00 +37°C° 0 mm 2 mps 691 mmHg 25%
14:00 +37°C° 0 mm 2 mps 690 mmHg 25%
15:00 +36°C° 0 mm 2 mps 689 mmHg 24%
16:00 +36°C° 0 mm 3 mps 689 mmHg 24%
17:00 +32°C° 0 mm 2 mps 689 mmHg 29%
18:00 +30°C° 0 mm 2 mps 689 mmHg 35%
19:00 +27°C° 0 mm 2 mps 689 mmHg 41%
20:00 +25°C° 0 mm 2 mps 689 mmHg 49%
21:00 +23°C° 0 mm 1 mps 689 mmHg 57%
22:00 +21°C° 0 mm 1 mps 689 mmHg 65%
23:00 +20°C° 0 mm 1 mps 689 mmHg 74%

Day after tomorrow, 16 August, Sunday

Time Temperature Precipitation Wind Pressure Humidity
00:00 +19°C° 0 mm 1 mps 689 mmHg 83%
01:00 +16°C° 0 mm 1 mps 689 mmHg 92%
02:00 +16°C° 0 mm 1 mps 689 mmHg 93%
03:00 +16°C° 0 mm 1 mps 689 mmHg 95%
04:00 +16°C° 0 mm 1 mps 689 mmHg 97%
05:00 +15°C° 0 mm 0 mps 689 mmHg 93%
06:00 +16°C° 0 mm 0 mps 690 mmHg 90%
07:00 +16°C° 0 mm 0 mps 690 mmHg 87%
08:00 +22°C° 0 mm 1 mps 691 mmHg 71%
09:00 +26°C° 0 mm 1 mps 691 mmHg 55%
10:00 +29°C° 0 mm 1 mps 692 mmHg 39%
11:00 +32°C° 0 mm 2 mps 692 mmHg 33%
12:00 +35°C° 0 mm 2 mps 691 mmHg 27%
13:00 +37°C° 0 mm 2 mps 691 mmHg 21%
14:00 +37°C° 0 mm 2 mps 690 mmHg 21%
15:00 +37°C° 0 mm 3 mps 689 mmHg 21%
16:00 +36°C° 0 mm 3 mps 689 mmHg 21%
17:00 +33°C° 0 mm 3 mps 689 mmHg 28%
18:00 +29°C° 0 mm 2 mps 689 mmHg 34%
19:00 +26°C° 0 mm 2 mps 689 mmHg 40%
20:00 +24°C° 0 mm 2 mps 689 mmHg 49%
21:00 +22°C° 0 mm 1 mps 690 mmHg 58%
22:00 +20°C° 0 mm 1 mps 690 mmHg 67%
23:00 +19°C° 0 mm 1 mps 690 mmHg 76%

17 August, Monday

Time Temperature Precipitation Wind Pressure Humidity
00:00 +18°C° 0 mm 1 mps 689 mmHg 86%
01:00 +16°C° 0 mm 1 mps 689 mmHg 95%
02:00 +16°C° 0 mm 1 mps 689 mmHg 94%
03:00 +16°C° 0 mm 1 mps 689 mmHg 93%
04:00 +18°C° 0 mm 1 mps 689 mmHg 92%
05:00 +18°C° 0 mm 1 mps 690 mmHg 90%
06:00 +18°C° 0 mm 1 mps 690 mmHg 87%
07:00 +18°C° 0 mm 1 mps 691 mmHg 84%
08:00 +21°C° 0 mm 1 mps 691 mmHg 70%
09:00 +24°C° 0 mm 1 mps 692 mmHg 55%
10:00 +27°C° 0 mm 2 mps 692 mmHg 40%
11:00 +29°C° 0 mm 2 mps 692 mmHg 35%
12:00 +32°C° 0 mm 2 mps 691 mmHg 30%
13:00 +35°C° 0 mm 3 mps 691 mmHg 24%
14:00 +34°C° 0 mm 3 mps 690 mmHg 24%
15:00 +34°C° 0 mm 3 mps 690 mmHg 24%
16:00 +34°C° 0 mm 3 mps 689 mmHg 24%
17:00 +30°C° 0 mm 3 mps 689 mmHg 30%
18:00 +28°C° 0 mm 2 mps 690 mmHg 36%
19:00 +25°C° 0 mm 2 mps 690 mmHg 42%
20:00 +23°C° 0 mm 2 mps 690 mmHg 52%
21:00 +20°C° 0 mm 2 mps 690 mmHg 63%
22:00 +19°C° 0 mm 1 mps 690 mmHg 73%
23:00 +18°C° 0 mm 1 mps 690 mmHg 81%

18 August, Tuesday

Time Temperature Precipitation Wind Pressure Humidity
00:00 +16°C° 0 mm 1 mps 690 mmHg 89%
01:00 +15°C° 0 mm 1 mps 690 mmHg 97%
02:00 +15°C° 0 mm 1 mps 690 mmHg 95%
03:00 +16°C° 0 mm 1 mps 690 mmHg 93%
04:00 +16°C° 0 mm 1 mps 690 mmHg 92%
05:00 +16°C° 0 mm 1 mps 690 mmHg 88%
06:00 +16°C° 0 mm 1 mps 690 mmHg 84%
07:00 +16°C° 0 mm 1 mps 691 mmHg 81%
08:00 +21°C° 0 mm 1 mps 691 mmHg 66%
09:00 +24°C° 0 mm 1 mps 692 mmHg 52%
10:00 +27°C° 0 mm 2 mps 692 mmHg 38%
11:00 +29°C° 0 mm 2 mps 692 mmHg 33%
12:00 +31°C° 0 mm 2 mps 691 mmHg 27%
13:00 +35°C° 0 mm 2 mps 690 mmHg 22%
14:00 +35°C° 0 mm 2 mps 690 mmHg 22%
15:00 +34°C° 0 mm 3 mps 689 mmHg 22%
16:00 +34°C° 0 mm 3 mps 688 mmHg 22%
17:00 +31°C° 0 mm 2 mps 688 mmHg 28%
18:00 +28°C° 0 mm 2 mps 688 mmHg 33%
19:00 +25°C° 0 mm 2 mps 688 mmHg 38%
20:00 +23°C° 0 mm 1 mps 689 mmHg 47%
21:00 +21°C° 0 mm 1 mps 689 mmHg 55%
22:00 +19°C° 0 mm 1 mps 689 mmHg 64%
23:00 +16°C° 0 mm 0 mps 689 mmHg 71%

19 August, Wednesday

Time Temperature Precipitation Wind Pressure Humidity
00:00 +15°C° 0 mm 0 mps 689 mmHg 77%
01:00 +14°C° 0 mm 0 mps 689 mmHg 84%
02:00 +14°C° 0 mm 0 mps 688 mmHg 88%
03:00 +13°C° 0 mm 0 mps 688 mmHg 91%
04:00 +13°C° 0 mm 0 mps 688 mmHg 95%
05:00 +13°C° 0 mm 0 mps 688 mmHg 92%
06:00 +14°C° 0 mm 0 mps 689 mmHg 89%
07:00 +15°C° 0 mm 0 mps 689 mmHg 86%
08:00 +21°C° 0 mm 1 mps 690 mmHg 69%
09:00 +25°C° 0 mm 1 mps 691 mmHg 52%
10:00 +29°C° 0 mm 2 mps 691 mmHg 35%
11:00 +31°C° 0 mm 2 mps 691 mmHg 31%
12:00 +34°C° 0 mm 2 mps 690 mmHg 27%
13:00 +36°C° 0 mm 2 mps 689 mmHg 23%
14:00 +35°C° 0 mm 3 mps 689 mmHg 24%
15:00 +35°C° 0 mm 3 mps 688 mmHg 24%
16:00 +35°C° 0 mm 3 mps 687 mmHg 25%
17:00 +33°C° 0 mm 3 mps 688 mmHg 28%
18:00 +29°C° 0 mm 2 mps 688 mmHg 32%
19:00 +27°C° 0 mm 2 mps 689 mmHg 35%
20:00 +25°C° 0 mm 1 mps 689 mmHg 46%
21:00 +22°C° 0 mm 1 mps 689 mmHg 56%
22:00 +19°C° 0 mm 1 mps 689 mmHg 67%
23:00 +18°C° 0 mm 1 mps 689 mmHg 74%
Show more